Location: *
(47.6569°N, 7.4256°E)
Time: 00:22:15
(UTC+00:00)

Helios 1A Rocket - Pass Details

Date: 14 December 2019
Orbit: 564 x 587 km, 98.3° (Epoch: 24 January)

Event Time Altitude Azimuth Distance (km) Brightness Sun altitude
Rises 16:14:43 0° 168° (SSE) 2,785 6.6 -6.0°
Reaches altitude 10° 16:16:52 10° 170° (S) 1,887 5.8 -6.3°
Maximum altitude 16:20:58 75° 257° (WSW) 600 3.2 -6.9°
Drops below altitude 10° 16:25:03 10° 343° (NNW) 1,889 5.5 -7.6°
Sets 16:27:12 0° 345° (NNW) 2,788 6.3 -7.9°
